Time,TemperatureF,DewpointF,PressureIn,WindDirection,WindDirectionDegrees,WindSpeedMPH,WindSpeedGustMPH,Humidity,HourlyPrecipIn,Conditions,Clouds,dailyrainin,SoftwareType,DateUTC
2013-08-11 00:01:00,59.0,51.0,-100.00,North,0,0.0,-999.0,76,-99.99,,,-99.99,,2013-08-11 04:01:00,
2013-08-11 00:12:00,59.0,51.0,-100.00,North,0,0.0,-999.0,76,-99.99,,,-99.99,,2013-08-11 04:12:00,
2013-08-11 00:22:00,58.0,52.0,-100.00,North,0,0.0,-999.0,78,-99.99,,,-99.99,,2013-08-11 04:22:00,
2013-08-11 00:32:00,58.0,52.0,-100.00,North,0,0.0,-999.0,78,-99.99,,,-99.99,,2013-08-11 04:32:00,
2013-08-11 00:43:00,59.0,52.0,-100.00,North,0,0.0,-999.0,77,-99.99,,,-99.99,,2013-08-11 04:43:00,
2013-08-11 00:53:00,59.0,52.0,-100.00,North,0,0.0,-999.0,77,-99.99,,,-99.99,,2013-08-11 04:53:00,
2013-08-11 01:02:00,59.0,52.0,-100.00,North,0,0.0,-999.0,78,-99.99,,,-99.99,,2013-08-11 05:02:00,
2013-08-11 01:38:00,58.0,52.0,-100.00,North,0,0.0,-999.0,81,-99.99,,,-99.99,,2013-08-11 05:38:00,
2013-08-11 01:48:00,58.0,52.0,-100.00,North,0,0.0,-999.0,81,-99.99,,,-99.99,,2013-08-11 05:48:00,
2013-08-11 02:04:00,57.0,53.0,-100.00,North,0,0.0,-999.0,85,-99.99,,,-99.99,,2013-08-11 06:04:00,
2013-08-11 02:18:00,58.0,54.0,-100.00,North,0,0.0,-999.0,86,-99.99,,,-99.99,,2013-08-11 06:18:00,
2013-08-11 02:58:00,57.0,54.0,-100.00,North,0,0.0,-999.0,88,-99.99,,,-99.99,,2013-08-11 06:58:00,
2013-08-11 03:07:00,57.0,54.0,-100.00,North,0,0.0,-999.0,88,-99.99,,,-99.99,,2013-08-11 07:07:00,
2013-08-11 03:17:00,57.0,54.0,-100.00,North,0,0.0,-999.0,89,-99.99,,,-99.99,,2013-08-11 07:17:00,
2013-08-11 03:25:00,57.0,54.0,-100.00,North,0,0.0,-999.0,89,-99.99,,,-99.99,,2013-08-11 07:25:00,
2013-08-11 03:36:00,57.0,54.0,-100.00,North,0,0.0,-999.0,90,-99.99,,,-99.99,,2013-08-11 07:36:00,
2013-08-11 03:46:00,57.0,54.0,-100.00,North,0,0.0,-999.0,90,-99.99,,,-99.99,,2013-08-11 07:46:00,
2013-08-11 03:56:00,57.0,54.0,-100.00,North,0,0.0,-999.0,91,-99.99,,,-99.99,,2013-08-11 07:56:00,
2013-08-11 04:11:00,57.0,54.0,-100.00,North,0,0.0,-999.0,91,-99.99,,,-99.99,,2013-08-11 08:11:00,
2013-08-11 04:27:00,56.0,54.0,-100.00,North,0,0.0,-999.0,92,-99.99,,,-99.99,,2013-08-11 08:27:00,
2013-08-11 04:37:00,56.0,54.0,-100.00,North,0,0.0,-999.0,92,-99.99,,,-99.99,,2013-08-11 08:37:00,
2013-08-11 04:49:00,56.0,54.0,-100.00,North,0,0.0,-999.0,92,-99.99,,,-99.99,,2013-08-11 08:49:00,
2013-08-11 04:59:00,55.0,53.0,-100.00,North,0,0.0,-999.0,92,-99.99,,,-99.99,,2013-08-11 08:59:00,
2013-08-11 05:10:00,55.0,53.0,-100.00,North,0,0.0,-999.0,92,-99.99,,,-99.99,,2013-08-11 09:10:00,
2013-08-11 05:17:00,55.0,53.0,-100.00,North,0,0.0,-999.0,93,-99.99,,,-99.99,,2013-08-11 09:17:00,
2013-08-11 05:30:00,55.0,53.0,-100.00,North,0,0.0,-999.0,93,-99.99,,,-99.99,,2013-08-11 09:30:00,
2013-08-11 05:35:00,55.0,53.0,-100.00,North,0,0.0,-999.0,92,-99.99,,,-99.99,,2013-08-11 09:35:00,
2013-08-11 05:44:00,55.0,53.0,-100.00,North,0,0.0,-999.0,92,-99.99,,,-99.99,,2013-08-11 09:44:00,
2013-08-11 06:02:00,57.0,54.0,-100.00,SSW,198,5.0,-999.0,90,-99.99,,,-99.99,,2013-08-11 10:02:00,
2013-08-11 06:15:00,56.0,53.0,-100.00,North,0,0.0,-999.0,90,-99.99,,,-99.99,,2013-08-11 10:15:00,
2013-08-11 06:29:00,56.0,53.0,-100.00,North,0,0.0,-999.0,90,-99.99,,,-99.99,,2013-08-11 10:29:00,
2013-08-11 06:37:00,56.0,53.0,-100.00,SSW,200,4.0,-999.0,91,-99.99,,,-99.99,,2013-08-11 10:37:00,
2013-08-11 06:58:00,56.0,53.0,-100.00,North,0,0.0,-999.0,91,-99.99,,,-99.99,,2013-08-11 10:58:00,
2013-08-11 07:07:00,56.0,53.0,-100.00,North,0,0.0,-999.0,91,-99.99,,,-99.99,,2013-08-11 11:07:00,
2013-08-11 07:17:00,57.0,54.0,-100.00,North,0,0.0,-999.0,91,-99.99,,,-99.99,,2013-08-11 11:17:00,
2013-08-11 07:24:00,57.0,54.0,-100.00,North,0,0.0,-999.0,91,-99.99,,,-99.99,,2013-08-11 11:24:00,
2013-08-11 07:38:00,59.0,56.0,-100.00,North,0,0.0,-999.0,90,-99.99,,,-99.99,,2013-08-11 11:38:00,
2013-08-11 07:48:00,59.0,56.0,-100.00,North,0,0.0,-999.0,90,-99.99,,,-99.99,,2013-08-11 11:48:00,
2013-08-11 08:37:00,62.0,57.0,-100.00,North,0,0.0,-999.0,84,-99.99,,,-99.99,,2013-08-11 12:37:00,
2013-08-11 08:46:00,62.0,57.0,-100.00,North,0,0.0,-999.0,84,-99.99,,,-99.99,,2013-08-11 12:46:00,
2013-08-11 09:07:00,63.0,59.0,-100.00,North,0,0.0,-999.0,85,-99.99,,,-99.99,,2013-08-11 13:07:00,
2013-08-11 09:17:00,64.0,59.0,-100.00,North,0,0.0,-999.0,83,-99.99,,,-99.99,,2013-08-11 13:17:00,
2013-08-11 09:27:00,64.0,59.0,-100.00,North,0,0.0,-999.0,83,-99.99,,,-99.99,,2013-08-11 13:27:00,
2013-08-11 09:39:00,66.0,60.0,-100.00,North,0,0.0,-999.0,80,-99.99,,,-99.99,,2013-08-11 13:39:00,
2013-08-11 09:58:00,67.0,59.0,-100.00,North,0,0.0,-999.0,77,-99.99,,,-99.99,,2013-08-11 13:58:00,
2013-08-11 10:06:00,67.0,59.0,-100.00,North,0,0.0,-999.0,77,-99.99,,,-99.99,,2013-08-11 14:06:00,
2013-08-11 10:19:00,68.0,59.0,-100.00,North,0,0.0,-999.0,72,-99.99,,,-99.99,,2013-08-11 14:19:00,
2013-08-11 10:24:00,68.0,59.0,-100.00,North,0,0.0,-999.0,72,-99.99,,,-99.99,,2013-08-11 14:24:00,
2013-08-11 10:36:00,70.0,59.0,-100.00,North,0,0.0,-999.0,65,-99.99,,,-99.99,,2013-08-11 14:36:00,
2013-08-11 10:49:00,70.0,59.0,-100.00,North,0,0.0,-999.0,65,-99.99,,,-99.99,,2013-08-11 14:49:00,
2013-08-11 10:57:00,69.0,58.0,-100.00,North,0,0.0,-999.0,68,-99.99,,,-99.99,,2013-08-11 14:57:00,
2013-08-11 11:08:00,69.0,58.0,-100.00,North,0,0.0,-999.0,68,-99.99,,,-99.99,,2013-08-11 15:08:00,
2013-08-11 11:16:00,69.0,58.0,-100.00,West,277,3.0,-999.0,67,-99.99,,,-99.99,,2013-08-11 15:16:00,
2013-08-11 11:24:00,69.0,58.0,-100.00,West,277,3.0,-999.0,67,-99.99,,,-99.99,,2013-08-11 15:24:00,
2013-08-11 11:40:00,69.0,58.0,-100.00,WSW,244,4.0,-999.0,66,-99.99,,,-99.99,,2013-08-11 15:40:00,
2013-08-11 11:49:00,69.0,58.0,-100.00,WSW,244,4.0,-999.0,66,-99.99,,,-99.99,,2013-08-11 15:49:00,
2013-08-11 12:00:00,71.0,58.0,-100.00,North,0,0.0,-999.0,63,-99.99,,,-99.99,,2013-08-11 16:00:00,
2013-08-11 12:11:00,71.0,58.0,-100.00,North,0,0.0,-999.0,63,-99.99,,,-99.99,,2013-08-11 16:11:00,
2013-08-11 12:29:00,70.0,57.0,-100.00,ESE,108,2.0,-999.0,64,-99.99,,,-99.99,,2013-08-11 16:29:00,
2013-08-11 12:41:00,70.0,57.0,-100.00,NNE,20,2.0,-999.0,63,-99.99,,,-99.99,,2013-08-11 16:41:00,
2013-08-11 12:46:00,70.0,57.0,-100.00,NNE,20,2.0,-999.0,63,-99.99,,,-99.99,,2013-08-11 16:46:00,
2013-08-11 12:59:00,72.0,57.0,-100.00,North,0,0.0,-999.0,59,-99.99,,,-99.99,,2013-08-11 16:59:00,
2013-08-11 13:09:00,72.0,57.0,-100.00,North,0,0.0,-999.0,59,-99.99,,,-99.99,,2013-08-11 17:09:00,
2013-08-11 13:26:00,69.0,57.0,-100.00,NE,52,8.0,-999.0,64,-99.99,,,-99.99,,2013-08-11 17:26:00,
2013-08-11 13:38:00,70.0,57.0,-100.00,East,85,4.0,-999.0,62,-99.99,,,-99.99,,2013-08-11 17:38:00,
2013-08-11 13:58:00,70.0,57.0,-100.00,East,85,9.0,-999.0,63,-99.99,,,-99.99,,2013-08-11 17:58:00,
2013-08-11 14:06:00,70.0,57.0,-100.00,East,85,9.0,-999.0,63,-99.99,,,-99.99,,2013-08-11 18:06:00,
2013-08-11 14:19:00,71.0,57.0,-100.00,North,0,0.0,-999.0,60,-99.99,,,-99.99,,2013-08-11 18:19:00,
2013-08-11 14:29:00,71.0,57.0,-100.00,North,0,0.0,-999.0,60,-99.99,,,-99.99,,2013-08-11 18:29:00,
2013-08-11 14:40:00,70.0,56.0,-100.00,NE,48,6.0,-999.0,60,-99.99,,,-99.99,,2013-08-11 18:40:00,
2013-08-11 14:58:00,73.0,56.0,-100.00,NE,35,1.0,-999.0,55,-99.99,,,-99.99,,2013-08-11 18:58:00,
2013-08-11 15:10:00,73.0,56.0,-100.00,NE,35,1.0,-999.0,55,-99.99,,,-99.99,,2013-08-11 19:10:00,
2013-08-11 15:16:00,71.0,57.0,-100.00,North,0,0.0,-999.0,60,-99.99,,,-99.99,,2013-08-11 19:16:00,
2013-08-11 15:35:00,71.0,57.0,-100.00,North,0,0.0,-999.0,60,-99.99,,,-99.99,,2013-08-11 19:35:00,
2013-08-11 15:51:00,73.0,56.0,-100.00,North,0,0.0,-999.0,55,-99.99,,,-99.99,,2013-08-11 19:51:00,
2013-08-11 16:08:00,72.0,58.0,-100.00,North,0,0.0,-999.0,60,-99.99,,,-99.99,,2013-08-11 20:08:00,
2013-08-11 16:20:00,72.0,58.0,-100.00,North,0,0.0,-999.0,60,-99.99,,,-99.99,,2013-08-11 20:20:00,
2013-08-11 16:28:00,72.0,57.0,-100.00,NNE,32,10.0,-999.0,57,-99.99,,,-99.99,,2013-08-11 20:28:00,
2013-08-11 16:39:00,72.0,57.0,-100.00,NNE,32,10.0,-999.0,57,-99.99,,,-99.99,,2013-08-11 20:39:00,
2013-08-11 16:49:00,74.0,57.0,-100.00,North,0,0.0,-999.0,54,-99.99,,,-99.99,,2013-08-11 20:49:00,
2013-08-11 16:59:00,74.0,57.0,-100.00,North,0,0.0,-999.0,54,-99.99,,,-99.99,,2013-08-11 20:59:00,
2013-08-11 17:08:00,74.0,58.0,-100.00,North,0,0.0,-999.0,56,-99.99,,,-99.99,,2013-08-11 21:08:00,
2013-08-11 17:27:00,73.0,57.0,-100.00,SW,215,6.0,-999.0,57,-99.99,,,-99.99,,2013-08-11 21:27:00,
2013-08-11 17:48:00,74.0,56.0,-100.00,ENE,72,1.0,-999.0,54,-99.99,,,-99.99,,2013-08-11 21:48:00,
2013-08-11 17:59:00,74.0,56.0,-100.00,ENE,72,1.0,-999.0,54,-99.99,,,-99.99,,2013-08-11 21:59:00,
2013-08-11 18:05:00,72.0,55.0,-100.00,North,0,0.0,-999.0,54,-99.99,,,-99.99,,2013-08-11 22:05:00,
2013-08-11 18:17:00,72.0,55.0,-100.00,North,0,0.0,-999.0,54,-99.99,,,-99.99,,2013-08-11 22:17:00,
2013-08-11 18:26:00,75.0,56.0,-100.00,West,265,4.0,-999.0,51,-99.99,,,-99.99,,2013-08-11 22:26:00,
2013-08-11 18:36:00,75.0,56.0,-100.00,West,265,4.0,-999.0,51,-99.99,,,-99.99,,2013-08-11 22:36:00,
2013-08-11 18:47:00,73.0,56.0,-100.00,West,271,7.0,-999.0,54,-99.99,,,-99.99,,2013-08-11 22:47:00,
2013-08-11 18:59:00,76.0,56.0,-100.00,North,0,0.0,-999.0,49,-99.99,,,-99.99,,2013-08-11 22:59:00,
2013-08-11 19:07:00,76.0,56.0,-100.00,North,0,0.0,-999.0,49,-99.99,,,-99.99,,2013-08-11 23:07:00,
2013-08-11 19:18:00,73.0,55.0,-100.00,WSW,242,5.0,-999.0,53,-99.99,,,-99.99,,2013-08-11 23:18:00,
2013-08-11 19:30:00,73.0,55.0,-100.00,WSW,242,5.0,-999.0,53,-99.99,,,-99.99,,2013-08-11 23:30:00,
2013-08-11 19:36:00,72.0,55.0,-100.00,West,265,8.0,-999.0,54,-99.99,,,-99.99,,2013-08-11 23:36:00,
2013-08-11 19:48:00,72.0,55.0,-100.00,West,265,8.0,-999.0,54,-99.99,,,-99.99,,2013-08-11 23:48:00,
2013-08-11 19:58:00,71.0,55.0,-100.00,West,276,3.0,-999.0,57,-99.99,,,-99.99,,2013-08-11 23:58:00,
2013-08-11 20:07:00,71.0,55.0,-100.00,West,276,3.0,-999.0,57,-99.99,,,-99.99,,2013-08-12 00:07:00,
2013-08-11 20:18:00,71.0,56.0,-100.00,North,0,0.0,-999.0,60,-99.99,,,-99.99,,2013-08-12 00:18:00,
2013-08-11 20:26:00,71.0,56.0,-100.00,North,0,0.0,-999.0,60,-99.99,,,-99.99,,2013-08-12 00:26:00,
2013-08-11 20:37:00,68.0,56.0,-100.00,North,0,0.0,-999.0,65,-99.99,,,-99.99,,2013-08-12 00:37:00,
2013-08-11 20:50:00,68.0,56.0,-100.00,North,0,0.0,-999.0,65,-99.99,,,-99.99,,2013-08-12 00:50:00,
2013-08-11 20:59:00,66.0,56.0,-100.00,North,0,0.0,-999.0,70,-99.99,,,-99.99,,2013-08-12 00:59:00,
2013-08-11 21:08:00,66.0,56.0,-100.00,North,0,0.0,-999.0,70,-99.99,,,-99.99,,2013-08-12 01:08:00,
2013-08-11 21:15:00,64.0,56.0,-100.00,North,0,0.0,-999.0,74,-99.99,,,-99.99,,2013-08-12 01:15:00,
2013-08-11 21:26:00,64.0,56.0,-100.00,North,0,0.0,-999.0,74,-99.99,,,-99.99,,2013-08-12 01:26:00,
2013-08-11 21:39:00,64.0,56.0,-100.00,North,0,0.0,-999.0,76,-99.99,,,-99.99,,2013-08-12 01:39:00,
2013-08-11 21:57:00,63.0,56.0,-100.00,North,0,0.0,-999.0,77,-99.99,,,-99.99,,2013-08-12 01:57:00,
2013-08-11 22:08:00,63.0,56.0,-100.00,North,0,0.0,-999.0,77,-99.99,,,-99.99,,2013-08-12 02:08:00,
2013-08-11 22:16:00,63.0,56.0,-100.00,North,0,0.0,-999.0,76,-99.99,,,-99.99,,2013-08-12 02:16:00,
2013-08-11 22:25:00,63.0,56.0,-100.00,North,0,0.0,-999.0,76,-99.99,,,-99.99,,2013-08-12 02:25:00,
2013-08-11 22:37:00,63.0,55.0,-100.00,North,0,0.0,-999.0,75,-99.99,,,-99.99,,2013-08-12 02:37:00,
2013-08-11 22:48:00,63.0,55.0,-100.00,North,0,0.0,-999.0,75,-99.99,,,-99.99,,2013-08-12 02:48:00,
2013-08-11 23:00:00,63.0,55.0,-100.00,North,0,0.0,-999.0,74,-99.99,,,-99.99,,2013-08-12 03:00:00,
2013-08-11 23:09:00,63.0,55.0,-100.00,North,0,0.0,-999.0,74,-99.99,,,-99.99,,2013-08-12 03:09:00,
2013-08-11 23:16:00,63.0,55.0,-100.00,North,0,0.0,-999.0,74,-99.99,,,-99.99,,2013-08-12 03:16:00,
2013-08-11 23:25:00,63.0,55.0,-100.00,North,0,0.0,-999.0,74,-99.99,,,-99.99,,2013-08-12 03:25:00,
2013-08-11 23:39:00,62.0,55.0,-100.00,North,0,0.0,-999.0,76,-99.99,,,-99.99,,2013-08-12 03:39:00,
2013-08-11 23:47:00,62.0,55.0,-100.00,North,0,0.0,-999.0,76,-99.99,,,-99.99,,2013-08-12 03:47:00,